Weather History for KUNO - August, 2014

Change the Weather History Date:

Monday, August 11, 2014

  Actual Average Record
Temperature  
Mean Temperature 77 °F 78 °F  
Max Temperature 86 °F 90 °F 103 °F (2010)
Min Temperature 68 °F 66 °F 52 °F (1967)
Degree Days  
Heating Degree Days 0 0  
Month to date heating degree days 0 0  
Since 1 June heating degree days 4 5  
Since 1 July heating degree days 2 0  
Cooling Degree Days 12 13  
Month to date cooling degree days 125 143  
Year to date cooling degree days 774 936  
Since 1 June cooling degree days 624 814  
Growing Degree Days 28 (Base 50)    
Moisture  
Dew Point 67 °F    
Average Humidity 73    
Maximum Humidity 97    
Minimum Humidity 48    
Precipitation  
Precipitation 0.00 in 0.09 in 3.03 in (1998)
Month to date precipitation 2.75 1.13  
Year to date precipitation 21.59 27.97  
Sea Level Pressure  
Sea Level Pressure 29.98 in    
Wind  
Wind Speed 7 mph (NW)    
Max Wind Speed 14 mph    
Max Gust Speed 21 mph    
Visibility 9 miles    
Events      
T = Trace of Precipitation, MM = Missing Value Source: NWS Daily Summary

Daily Weather History Graph

Daily Weather History Graph

Search for Another Location

Airport or City:

Trip Planner

Search our weather history database for the weather conditions in past years. The results will help you decide how hot, cold, wet, or windy it might be!

Date:

Astronomy

Aug. 11, 2014 Rise Set
Actual Time 6:21 AM CDT 8:03 PM CDT
Civil Twilight 5:53 AM CDT 8:31 PM CDT
Nautical Twilight 5:19 AM CDT 9:05 PM CDT
Astronomical Twilight 4:44 AM CDT 9:40 PM CDT
Moon 8:36 PM CDT (8/11) 7:24 AM CDT (8/11)
Length of Visible Light 14h 38m
Length of Day
13h 42m
Full, 99% of the Moon is Illuminated
Aug 11
Full
Aug 17
Last Quarter
Aug 25
New
Sep 2
First Quarter
Sep 8
Full

Hourly Weather History & Observations

Time (CDT) Temp. Heat Index Dew Point Humidity Pressure Visibility Wind Dir Wind Speed Gust Speed Precip Events Conditions
12:53 AM 71.1 °F - 68.0 °F 90% 29.95 in 10.0 mi NNW 4.6 mph - N/A   Clear
1:53 AM 71.1 °F - 69.1 °F 93% 29.95 in 10.0 mi NNW 3.5 mph - N/A   Mostly Cloudy
2:53 AM 70.0 °F - 68.0 °F 93% 29.94 in 10.0 mi Calm Calm - N/A   Scattered Clouds
3:53 AM 69.1 °F - 66.9 °F 93% 29.93 in 10.0 mi Calm Calm - N/A   Mostly Cloudy
4:26 AM 69.1 °F - 66.9 °F 93% 29.97 in 4.0 mi West 4.6 mph - N/A   Scattered Clouds
4:33 AM 69.1 °F - 68.0 °F 96% 29.97 in 1.5 mi WNW 4.6 mph - N/A   Mostly Cloudy
4:44 AM 70.0 °F - 68.0 °F 93% 29.98 in 3.0 mi WNW 4.6 mph - N/A   Overcast
4:53 AM 70.0 °F - 68.0 °F 93% 29.94 in 5.0 mi NW 8.1 mph - N/A   Overcast
5:05 AM 70.0 °F - 69.1 °F 97% 29.99 in 2.5 mi NW 5.8 mph - N/A   Overcast
5:13 AM 70.0 °F - 69.1 °F 97% 29.98 in 6.0 mi NNW 5.8 mph - N/A   Overcast
5:40 AM 71.1 °F - 69.1 °F 93% 29.99 in 10.0 mi NNW 3.5 mph - N/A   Overcast
5:53 AM 71.1 °F - 69.1 °F 93% 29.95 in 10.0 mi NW 4.6 mph - N/A   Overcast
6:12 AM 72.0 °F - 69.1 °F 91% 30.00 in 10.0 mi Variable 3.5 mph - N/A   Overcast
6:53 AM 71.1 °F - 68.0 °F 90% 29.96 in 10.0 mi NNW 3.5 mph - N/A   Mostly Cloudy
7:53 AM 72.0 °F - 68.0 °F 87% 29.99 in 10.0 mi NNW 8.1 mph - N/A   Scattered Clouds
8:26 AM 73.0 °F - 68.0 °F 84% 30.03 in 10.0 mi NW 6.9 mph - N/A   Mostly Cloudy
8:38 AM 73.0 °F - 66.9 °F 81% 30.04 in 10.0 mi NNW 8.1 mph - N/A   Mostly Cloudy
8:53 AM 73.9 °F - 68.0 °F 82% 30.01 in 10.0 mi NNW 10.4 mph - N/A   Mostly Cloudy
9:17 AM 73.0 °F - 66.0 °F 79% 30.05 in 10.0 mi North 11.5 mph - N/A   Mostly Cloudy
9:53 AM 77.0 °F - 66.9 °F 71% 30.00 in 10.0 mi North 9.2 mph - N/A   Scattered Clouds
10:11 AM 77.0 °F - 66.9 °F 71% 30.04 in 10.0 mi North 6.9 mph - N/A   Mostly Cloudy
10:53 AM 80.1 °F 82.7 °F 68.0 °F 67% 29.99 in 10.0 mi North 12.7 mph - N/A   Partly Cloudy
11:53 AM 80.1 °F 82.3 °F 66.9 °F 64% 29.99 in 10.0 mi NNW 6.9 mph - N/A   Mostly Cloudy
12:53 PM 82.0 °F 84.5 °F 66.9 °F 60% 29.99 in 10.0 mi NNW 6.9 mph - N/A   Scattered Clouds
1:53 PM 82.9 °F 85.4 °F 66.9 °F 58% 29.99 in 10.0 mi WNW 8.1 mph - N/A   Scattered Clouds
2:53 PM 84.0 °F 86.3 °F 66.0 °F 55% 29.98 in 10.0 mi North 10.4 mph - N/A   Scattered Clouds
3:53 PM 86.0 °F 87.6 °F 64.9 °F 49% 29.96 in 10.0 mi WNW 8.1 mph - N/A   Mostly Cloudy
4:53 PM 84.9 °F 86.6 °F 64.9 °F 51% 29.94 in 10.0 mi NW 10.4 mph 17.3 mph N/A   Partly Cloudy
5:53 PM 84.0 °F 85.8 °F 64.9 °F 53% 29.93 in 10.0 mi NW 8.1 mph - N/A   Clear
6:53 PM 82.9 °F 84.4 °F 64.0 °F 53% 29.94 in 10.0 mi NW 6.9 mph - N/A   Clear
7:53 PM 78.1 °F - 64.0 °F 62% 29.94 in 10.0 mi WNW 3.5 mph - N/A   Clear
8:53 PM 75.0 °F - 64.9 °F 71% 29.95 in 10.0 mi NW 3.5 mph - N/A   Partly Cloudy
9:53 PM 73.0 °F - 64.9 °F 76% 29.97 in 10.0 mi NNW 5.8 mph - N/A   Clear
10:53 PM 73.0 °F - 64.9 °F 76% 29.99 in 10.0 mi NNW 9.2 mph - N/A   Clear
11:53 PM 71.1 °F - 57.9 °F 63% 30.00 in 10.0 mi North 10.4 mph - N/A   Clear